GFSFLT1_925_thetae_240.txt.gz
Theta_e
335 335 339 338 337 339 340 340 341 341 338 338 342 341 338 337 335 336 338 337 336 337 333 336 337 334 334 334 333 333 331 332 330
328 330 333 333 335 337 339 340 340 340 340 341 338 340 341 337 333 335 337 338 336 335 333 335 335 335 333 335 335 333 331 332 330
316 320 322 326 328 329 331 335 336 336 338 339 340 341 339 341 337 333 335 338 337 336 334 338 336 335 335 333 332 332 331 330 329
310 311 311 313 317 319 321 322 325 330 331 330 334 338 340 338 339 337 335 337 337 337 335 337 338 336 335 334 334 332 332 331 330
308 309 307 307 311 309 310 309 309 312 317 327 326 329 333 338 338 338 336 337 337 337 335 333 339 339 336 334 334 333 333 331 331
307 307 308 309 311 311 311 311 309 305 313 317 323 324 329 337 339 339 336 337 336 337 336 334 339 339 339 337 335 334 334 333 331
307 307 309 309 310 310 310 309 309 310 309 310 311 316 322 325 328 337 338 338 336 338 339 337 338 340 340 338 337 336 335 334 332
308 307 307 307 307 307 307 307 307 307 307 307 307 309 312 317 317 330 330 337 336 335 336 338 339 337 339 340 339 338 336 335 333
307 307 307 306 306 307 306 306 306 306 306 306 306 307 308 308 313 315 327 329 334 336 338 339 339 339 339 340 339 339 338 336 335
307 307 306 307 306 306 306 306 306 305 305 305 305 305 306 307 308 310 313 318 321 329 336 338 338 339 339 339 339 339 338 335 336
303 306 306 306 306 306 305 306 305 305 304 304 304 304 305 305 305 306 308 309 313 321 325 334 338 337 338 339 339 337 337 336 335
302 303 303 302 302 304 305 305 305 305 305 305 305 304 304 304 304 304 305 306 308 310 316 324 331 336 338 339 337 337 337 337 335
301 302 302 302 301 301 305 305 304 304 305 305 305 305 304 304 303 303 303 304 305 307 310 313 326 332 334 338 338 338 336 333 335
300 301 302 302 301 300 301 301 304 305 305 305 305 304 304 304 303 303 303 303 304 305 305 306 310 316 325 334 337 338 339 337 336
299 300 302 302 301 301 301 301 300 301 302 303 304 304 303 303 304 304 303 303 303 303 305 308 309 308 312 324 331 335 338 338 338
298 298 299 301 301 301 301 301 302 301 302 304 303 302 302 302 301 303 304 302 303 304 305 305 305 305 309 313 319 333 334 338 339
297 298 299 300 300 301 300 301 301 302 301 302 302 300 301 301 301 301 302 303 305 304 303 304 308 316 315 312 317 322 327 331 337
299 298 298 298 298 300 301 301 302 302 302 301 301 300 299 299 301 303 303 302 302 302 302 303 305 307 313 318 320 321 323 328 332
298 298 298 298 298 298 299 300 301 302 301 302 301 300 300 299 299 301 302 303 303 302 302 302 303 305 308 315 316 320 323 324 325
298 298 298 298 298 298 298 299 299 301 301 300 301 301 300 300 299 300 300 303 302 302 302 302 307 307 309 312 313 315 316 324 327

GFSFLT1_925_thetae_243.txt.gz
Theta_e
327 331 335 336 337 338 338 338 339 339 339 338 338 342 340 338 333 329 335 339 337 337 336 334 337 335 335 333 334 333 333 332 332
316 320 324 329 332 334 335 338 338 340 340 340 340 340 340 340 335 328 334 337 337 338 335 336 338 336 335 334 334 333 333 332 330
311 313 315 315 319 322 326 328 332 334 335 335 337 338 338 339 339 332 331 335 338 338 335 332 337 336 334 335 335 333 332 332 330
311 311 310 308 311 315 316 318 320 323 326 330 331 331 334 337 337 336 335 334 336 338 337 334 333 336 336 334 334 333 332 331 330
306 309 307 310 312 312 313 314 314 312 311 322 326 329 328 328 335 338 337 335 338 338 339 335 336 338 336 335 335 333 333 332 331
307 307 309 310 312 312 312 313 312 312 312 313 315 319 323 327 334 335 338 335 337 339 337 336 336 339 339 337 335 335 334 333 332
308 307 306 310 310 311 311 312 311 309 308 308 308 308 311 317 321 325 331 337 336 337 337 336 336 340 340 340 338 336 335 334 333
303 306 305 307 307 307 307 307 307 307 307 307 306 306 307 308 310 314 327 330 335 336 335 337 339 338 340 340 336 338 337 334 334
300 302 304 306 306 306 306 306 306 306 306 306 306 305 306 306 307 309 312 326 329 335 336 335 336 338 338 338 339 338 338 337 333
300 300 302 304 306 305 307 306 306 306 305 305 304 304 304 305 305 306 307 309 314 323 329 335 336 337 339 339 338 338 338 337 337
299 300 301 301 304 303 304 306 305 305 305 305 304 304 304 304 304 304 305 306 307 311 317 323 329 335 337 339 339 338 338 337 335
299 299 299 301 301 303 303 302 305 305 305 305 304 305 304 304 304 303 303 304 304 306 307 313 319 327 333 335 338 338 338 336 335
299 299 299 299 301 302 301 301 303 305 304 304 303 304 305 304 304 304 303 303 303 303 304 305 311 316 321 329 335 337 338 337 337
297 297 298 298 300 301 301 301 300 302 303 304 304 304 304 304 304 304 303 303 303 302 303 304 306 310 313 318 323 332 336 337 336
298 297 298 298 298 299 301 301 301 300 300 300 300 301 302 304 303 302 302 302 303 302 302 302 303 303 307 310 314 319 328 334 337
298 298 297 297 297 297 298 301 301 301 301 300 301 302 303 302 302 301 301 302 303 303 302 305 306 306 310 312 312 313 314 325 332
298 298 298 297 297 298 299 299 301 301 300 301 301 299 300 301 301 301 300 300 301 302 304 303 303 303 308 308 316 318 319 319 321
297 298 298 298 298 298 297 297 300 299 300 300 300 298 298 297 300 300 301 300 302 302 302 302 302 302 302 304 307 311 318 321 325
297 298 298 298 297 298 297 297 298 299 300 301 301 301 300 297 298 300 300 300 300 302 302 302 302 302 304 309 309 311 313 315 319
296 297 298 298 297 298 297 297 297 297 298 300 300 300 300 300 297 298 297 300 301 302 302 302 301 302 301 302 305 306 305 308 312

GFSFLT1_925_thetae_246.txt.gz
Theta_e
315 317 320 325 330 333 336 337 334 336 336 337 337 340 341 339 334 332 334 336 338 340 338 334 337 336 335 335 335 334 333 334 334
314 314 315 316 315 321 326 331 334 337 339 340 340 340 340 339 337 331 330 335 338 340 338 337 338 336 336 335 334 333 333 332 332
313 312 312 314 313 315 317 320 323 327 331 334 335 337 337 337 337 335 331 331 337 339 338 338 338 337 336 335 335 334 334 332 331
312 310 311 312 312 314 315 315 316 317 319 323 327 333 331 333 337 336 336 332 334 339 339 338 339 338 336 336 336 334 334 332 331
303 309 308 311 313 313 315 315 315 315 315 316 322 324 326 329 327 331 337 336 333 339 339 339 338 337 337 336 334 334 333 332 331
298 304 309 311 310 313 314 314 314 314 313 310 310 311 311 315 323 332 332 335 335 334 340 338 336 338 337 337 335 334 333 332 332
300 301 302 306 309 310 311 311 310 310 307 307 307 307 307 307 311 313 315 329 335 337 335 339 336 336 339 338 337 336 334 334 332
298 297 298 300 302 305 306 306 306 306 306 306 306 306 306 306 306 307 310 318 334 335 335 337 337 337 340 340 338 337 336 335 334
296 298 298 298 300 302 304 305 306 306 306 306 305 305 305 305 305 305 306 309 320 327 336 335 335 335 338 340 339 339 337 337 335
296 298 298 299 300 300 304 305 306 306 306 305 305 304 304 304 304 304 304 305 307 314 320 327 333 337 338 339 338 338 338 338 338
297 298 299 299 298 299 301 301 305 305 305 305 304 304 304 304 304 304 303 303 304 306 312 316 321 325 334 337 337 338 338 338 337
297 297 297 299 299 299 299 301 302 303 304 304 304 304 304 304 304 304 304 303 303 303 304 307 312 316 322 331 330 330 337 338 337
298 298 297 298 297 297 298 300 301 301 302 304 304 303 303 303 304 304 304 304 303 303 303 304 308 311 314 318 326 328 334 338 338
297 297 297 297 298 297 298 298 299 301 301 304 304 303 304 303 304 304 303 303 303 303 302 301 302 303 307 311 316 320 323 328 336
297 297 297 297 297 297 297 297 298 299 300 300 300 300 300 300 301 301 303 303 303 302 302 302 302 305 305 309 311 313 316 320 324
296 297 297 297 297 297 297 297 297 297 299 300 299 299 299 300 301 302 302 302 301 301 302 302 303 304 305 311 312 319 319 317 318
296 297 297 297 297 297 297 297 297 298 299 299 299 298 299 301 302 301 301 301 300 301 301 301 303 302 302 302 304 307 314 320 322
297 296 296 297 297 297 297 296 298 298 299 300 299 296 298 296 300 300 300 300 300 299 300 302 302 302 301 302 304 309 309 312 318
296 297 296 296 297 297 297 297 297 297 297 298 299 300 299 296 297 299 300 300 299 299 300 301 302 302 301 302 302 303 306 306 308
296 296 296 296 296 297 297 297 297 297 297 298 299 299 299 299 296 297 296 299 299 299 299 301 301 301 301 301 302 302 305 304 306

GFSFLT1_925_thetae_252.txt.gz
Theta_e
316 316 317 320 318 318 318 319 321 325 332 333 335 336 337 337 338 336 333 334 334 337 340 340 340 338 336 336 338 338 338 338 337
310 311 311 314 318 317 317 318 319 320 322 325 332 334 336 337 336 336 332 332 333 335 340 340 339 339 337 336 336 336 336 336 336
305 305 306 309 313 317 318 317 318 319 319 320 321 327 332 334 335 336 336 335 331 333 339 339 339 339 338 336 336 336 335 335 335
301 301 303 305 309 312 316 319 317 318 319 319 319 320 322 328 330 332 333 334 336 338 337 337 340 339 339 337 337 336 334 334 334
298 298 298 304 305 308 311 313 317 319 318 318 314 314 315 312 326 320 326 328 332 338 337 337 340 340 339 337 337 336 335 335 333
296 296 299 301 303 303 307 309 311 313 315 313 311 306 307 306 306 320 312 321 327 332 337 338 339 339 339 338 337 336 336 334 333
297 298 298 299 299 299 301 303 305 306 309 308 306 306 306 306 305 305 310 314 320 331 333 334 337 339 340 339 337 336 334 334 334
296 297 297 297 297 296 297 298 299 300 303 305 305 305 305 305 305 305 305 309 316 321 326 332 335 338 340 339 339 336 335 334 333
296 296 297 297 296 297 297 298 298 299 302 304 305 306 305 305 304 304 304 305 312 316 319 323 327 335 338 339 339 338 336 335 334
296 296 296 296 297 297 296 296 298 298 299 301 305 305 305 304 304 304 304 304 308 311 315 317 320 328 334 326 329 337 337 336 333
295 295 296 296 296 296 297 297 297 298 298 300 302 304 304 304 304 304 304 303 303 307 310 311 313 315 316 317 316 324 330 337 335
296 296 296 296 296 296 297 297 297 296 297 298 300 303 303 304 304 304 304 303 303 303 303 307 310 311 312 314 313 315 322 337 335
295 295 296 296 296 296 296 296 297 297 297 297 298 300 303 304 304 303 303 303 302 303 303 303 306 307 308 309 312 311 317 325 327
296 296 296 296 296 295 296 296 296 297 297 297 297 298 301 303 303 303 303 302 303 303 303 303 302 302 307 309 311 312 313 320 326
297 296 296 296 296 296 295 295 296 296 297 297 297 297 298 300 302 303 302 303 302 301 301 302 302 302 305 312 313 315 315 314 323
297 297 297 297 296 296 296 295 295 296 297 296 296 297 297 298 302 302 301 299 299 300 301 301 300 300 302 304 306 317 318 321 316
297 297 297 297 297 296 296 295 295 295 296 296 295 295 297 298 300 299 299 299 299 301 300 300 300 300 301 302 302 303 313 316 319
297 297 297 297 297 297 296 295 295 294 295 295 296 294 295 295 298 298 299 299 299 300 299 299 299 301 301 301 302 305 306 310 312
295 296 297 297 297 297 297 296 295 295 294 295 296 296 297 296 296 297 299 299 299 300 299 299 299 300 301 301 306 303 303 306 308
295 296 296 297 297 297 297 297 296 296 295 296 296 296 297 297 295 295 295 297 299 299 299 299 299 298 300 302 302 302 302 301 305

GFSFLT1_925_thetae_255.txt.gz
Theta_e
311 312 313 313 316 320 321 320 320 322 323 325 333 335 337 336 339 339 338 336 336 334 340 340 339 340 336 338 340 340 340 339 337
309 309 308 309 311 316 319 322 320 321 321 322 323 326 332 336 336 337 337 338 334 334 339 340 339 340 339 338 338 339 339 339 338
306 306 305 305 307 311 315 318 322 320 320 321 321 321 322 330 332 335 335 336 335 337 338 339 338 338 339 337 337 337 337 337 337
304 302 302 302 304 308 310 312 316 320 322 320 319 319 319 320 325 327 333 333 335 336 337 338 339 339 339 338 337 337 336 336 336
298 299 299 300 303 306 306 309 312 314 317 318 318 314 312 308 310 319 321 326 330 334 337 338 338 338 340 339 338 337 336 335 335
297 298 300 301 303 304 304 304 307 309 312 312 311 310 307 306 306 307 313 318 322 328 331 337 338 339 339 340 339 338 336 334 334
298 298 298 300 301 302 301 301 302 303 302 303 307 307 306 305 306 305 306 310 319 322 331 334 333 338 339 340 339 337 336 335 335
296 296 297 297 297 298 297 297 298 299 300 302 305 305 305 306 305 305 305 307 314 319 322 326 332 334 339 339 340 339 335 335 334
296 296 296 297 297 297 297 298 298 298 299 300 302 305 305 305 305 305 305 305 311 315 318 321 325 328 334 338 339 339 338 335 335
296 296 296 296 296 297 297 298 298 298 299 299 301 304 305 304 304 304 304 304 305 310 314 317 318 319 326 334 335 331 337 337 336
295 296 296 296 296 297 297 297 297 298 298 299 300 301 304 304 304 304 304 304 303 304 310 311 313 314 316 317 325 330 329 331 332
296 296 296 296 296 296 297 297 297 298 298 298 298 300 302 304 304 304 304 304 304 303 303 306 308 311 312 313 315 313 321 327 330
297 296 296 296 296 296 296 297 297 297 297 298 298 299 300 303 303 304 304 303 303 303 302 303 306 307 308 309 311 312 312 310 319
297 297 297 296 296 296 296 296 297 297 298 298 298 298 299 300 303 303 304 303 302 302 302 303 303 303 306 308 311 313 312 316 314
297 297 297 297 296 296 296 296 296 296 297 297 298 298 298 299 301 303 303 303 302 302 302 300 300 300 302 307 309 311 316 315 316
297 297 297 298 298 297 296 296 296 296 297 297 298 298 297 298 298 300 302 303 303 301 299 300 301 301 300 306 306 316 319 320 318
296 296 297 297 297 298 297 296 296 295 296 297 298 299 299 298 298 299 302 302 301 299 299 301 300 300 299 302 302 304 310 320 321
296 296 296 297 297 298 298 297 296 296 296 296 298 299 299 299 299 299 301 301 300 300 299 300 299 300 301 301 302 302 310 312 315
296 296 296 296 297 297 298 298 297 296 296 296 296 297 297 299 299 299 300 300 300 300 299 300 300 299 301 301 302 307 308 309 309
296 296 296 296 297 297 297 298 297 296 295 296 296 297 297 297 299 300 300 298 299 300 300 299 299 299 298 301 306 305 307 305 305

GFSFLT1_925_thetae_258.txt.gz
Theta_e
311 311 312 312 312 313 318 322 324 322 323 324 326 329 335 336 338 337 337 336 336 336 339 340 341 341 339 339 341 340 342 341 339
310 310 310 310 309 309 313 318 321 325 323 322 324 324 325 333 337 339 339 339 337 339 339 340 341 341 341 339 340 341 341 341 340
308 308 309 308 307 307 309 313 315 319 323 324 322 323 323 327 333 335 338 338 337 339 339 339 341 340 339 340 339 339 340 340 340
305 305 304 304 305 304 307 310 312 315 317 322 322 319 319 322 327 329 332 334 334 336 338 338 339 340 337 338 339 338 338 338 339
300 300 301 301 302 304 306 308 308 311 314 317 317 317 315 314 313 317 328 328 332 334 336 338 338 339 339 339 340 339 337 336 337
299 299 301 303 304 305 306 307 307 307 308 311 312 313 316 312 311 311 311 317 323 326 330 332 337 339 339 339 340 339 336 336 335
299 299 300 301 302 303 304 305 305 304 304 304 306 312 313 312 310 309 307 309 315 323 325 330 334 338 339 339 340 340 338 336 335
299 299 299 300 300 300 300 300 300 300 300 301 303 308 311 311 310 308 306 307 313 317 323 324 329 333 336 338 340 340 340 338 335
299 299 299 299 299 300 300 300 300 300 300 300 301 303 306 308 308 308 306 305 310 314 318 321 324 325 329 334 336 339 339 338 338
297 298 299 299 299 300 300 300 300 300 300 300 300 301 303 306 307 307 306 305 307 307 315 317 317 319 320 327 333 335 336 336 338
298 297 297 298 299 299 300 300 300 300 300 300 300 300 302 304 306 306 308 305 304 306 310 311 313 315 317 316 317 322 331 334 336
298 298 298 297 297 298 299 300 300 300 300 300 300 300 301 303 305 306 306 307 305 304 306 305 308 310 312 313 314 315 312 327 330
298 298 298 298 297 297 297 299 300 300 300 300 300 300 300 302 304 305 306 306 306 306 304 303 306 308 308 309 310 314 317 314 325
298 298 298 298 298 297 297 297 298 300 300 300 300 300 300 301 302 305 306 306 306 306 305 303 303 303 306 307 309 312 316 318 318
298 298 297 297 298 298 297 297 297 298 299 300 300 300 300 300 302 303 305 305 306 305 305 305 304 302 303 305 308 310 315 319 322
297 297 297 297 297 298 298 298 297 297 298 299 300 300 301 300 300 302 304 305 305 305 305 304 303 303 301 304 307 309 315 321 322
296 296 296 296 297 298 298 298 298 297 297 297 299 302 302 301 300 300 301 304 304 304 304 303 302 302 303 303 307 308 315 316 320
295 296 297 298 297 297 298 298 298 298 298 297 298 301 303 303 302 300 300 302 303 304 303 302 302 302 302 303 304 303 306 315 319
294 295 296 297 297 297 297 298 298 297 298 297 297 297 299 302 303 301 300 301 303 303 303 302 302 301 301 302 303 304 306 312 316
294 294 296 297 297 297 297 298 298 298 297 297 297 297 298 298 300 302 302 301 302 303 302 302 301 301 301 302 303 305 311 310 311

GFSFLT1_925_thetae_264.txt.gz
Theta_e
314 315 314 314 315 315 315 315 315 315 319 323 327 330 329 328 329 336 338 338 337 338 338 335 337 341 341 341 341 340 340 342 339
311 312 312 313 313 313 313 314 313 314 315 319 323 326 328 327 326 328 336 337 337 338 339 338 338 340 341 341 341 339 340 342 342
308 309 310 311 311 312 312 312 311 312 312 315 318 321 325 325 324 326 330 335 336 337 339 340 337 340 341 342 340 340 340 341 341
306 306 306 307 307 308 309 309 309 310 311 313 314 318 321 323 321 322 325 332 334 336 337 338 341 341 341 341 340 341 340 341 339
301 304 304 306 307 307 308 309 310 311 311 311 313 313 316 319 320 319 320 320 332 334 336 336 335 340 340 341 341 339 341 340 340
299 301 303 306 306 306 307 307 309 310 311 311 311 311 312 313 317 318 318 317 320 328 330 332 337 338 339 340 340 339 337 338 337
299 299 300 301 302 304 304 305 306 307 308 309 309 308 307 308 311 318 316 315 314 315 327 330 331 335 336 338 339 340 339 336 336
299 299 298 298 298 299 299 300 302 302 304 304 305 304 304 307 308 316 316 313 312 312 318 327 327 329 332 335 337 339 336 339 336
299 298 298 298 298 297 298 299 300 301 302 302 302 303 302 302 303 310 315 312 310 312 314 318 327 327 328 329 331 334 338 339 339
299 298 298 298 298 298 298 298 298 299 300 302 302 303 302 302 302 303 310 311 311 311 313 318 323 325 326 325 329 333 335 336 336
298 298 298 298 298 298 298 298 297 298 299 300 302 302 302 302 302 302 303 310 309 311 313 315 319 320 323 320 321 328 332 334 334
297 298 297 298 298 298 298 298 297 297 298 299 301 302 302 302 302 302 303 309 308 309 312 313 315 315 319 319 317 317 318 320 330
297 297 298 297 298 298 298 298 298 298 297 298 300 301 302 302 302 301 302 304 309 308 310 311 312 311 312 312 312 313 316 315 313
296 296 296 296 297 297 298 298 298 298 298 298 299 300 300 302 302 302 302 303 308 309 308 309 310 310 311 310 310 311 312 317 314
296 295 295 296 297 298 297 298 298 298 298 298 298 298 299 301 303 302 302 303 305 308 308 309 308 308 308 308 309 310 311 315 319
293 294 294 295 296 297 297 297 298 298 298 298 298 298 299 299 301 302 302 302 304 306 307 308 306 306 308 307 307 309 310 312 315
293 294 295 294 295 296 296 297 297 298 298 298 298 298 299 300 301 302 302 301 303 306 306 306 306 306 305 305 305 305 308 312 313
294 294 295 295 294 295 297 297 297 298 298 298 298 299 301 299 303 302 302 302 302 303 306 306 306 305 304 303 303 303 303 310 313
294 294 294 294 294 294 296 298 297 297 298 298 298 298 298 299 300 302 302 302 301 301 302 305 305 305 303 303 303 303 304 305 308
294 295 294 294 294 294 295 297 297 298 299 298 298 298 298 298 299 298 300 302 302 301 301 303 305 305 303 302 302 302 302 303 307